Вернуться в каталог

USA 574

АктивенВоенныеVLEO
NORAD 67486·PAYLOAD·🇺🇸 United States

Запущен Jan 17, 2026 с Vandenberg Space Force Base

Loading…

Ближайшие Пролёты (ближайшие 24 часа)

TLE

УстаревшееSource: Mike McCants

Эпоха: Aug 3, 2026, 20:36 UTC

1 67486U 26011C   26215.85882484 0.00000000  00000-0  00000-0 0    07
2 67486  70.0190 117.2993 0002000 304.0224  55.9776 14.96713302    04

Отслеживайте USA 574 в реальном времени с AllMySat

Download on the App Store